Date,TemperatureHighF,TemperatureAvgF,TemperatureLowF,DewpointHighF,DewpointAvgF,DewpointLowF,HumidityHigh,HumidityAvg,HumidityLow,PressureMaxIn,PressureMinIn,WindSpeedMaxMPH,WindSpeedAvgMPH,GustSpeedMaxMPH,PrecipitationSumIn
2012-1-1,54.0,42.8,32.0,46.0,29.7,11.0,83,61,33,0.00,40.00,24,13,45,0.06
2012-1-2,32.0,25.0,19.0,18.0,14.7,8.0,82,65,49,0.00,40.00,15,11,29,0.04
2012-1-3,27.0,19.7,13.0,9.0,6.5,3.0,75,57,37,0.00,40.00,11,6,22,0.00
2012-1-4,42.0,31.0,20.0,24.0,14.0,8.0,62,49,38,0.00,40.00,11,8,19,0.00
2012-1-5,52.0,39.6,26.0,27.0,25.3,23.0,87,59,36,0.00,40.00,11,6,17,0.00
2012-1-6,60.0,48.0,39.0,31.0,28.2,26.0,62,47,32,0.00,40.00,12,8,23,0.00
2012-1-7,52.0,44.6,31.0,45.0,29.9,21.0,87,59,30,0.00,40.00,9,5,16,0.00
2012-1-8,47.0,35.3,25.0,28.0,24.8,21.0,94,68,42,0.00,40.00,8,4,13,0.00
2012-1-9,51.0,39.0,29.0,27.0,22.6,18.0,81,54,28,0.00,40.00,11,5,15,0.00
2012-1-10,55.0,38.9,26.0,29.0,24.7,20.0,82,59,33,0.00,40.00,7,4,14,0.00
2012-1-11,47.0,41.6,38.0,46.0,37.4,27.0,98,87,57,0.00,40.00,10,6,17,0.61
2012-1-12,43.0,32.9,15.0,41.0,30.0,6.0,98,89,66,0.00,40.00,17,11,34,0.22
2012-1-13,19.0,16.7,14.0,14.0,9.6,6.0,83,73,66,0.00,40.00,16,12,31,0.02
2012-1-14,29.0,21.5,15.0,22.0,14.8,11.0,90,76,54,0.00,40.00,7,4,153,0.05
2012-1-15,34.0,22.5,7.0,20.0,14.5,4.0,89,73,52,0.00,40.00,7,4,147,0.03
2012-1-16,55.0,40.1,26.0,49.0,33.7,21.0,97,79,51,0.00,40.00,14,9,28,0.03
2012-1-17,57.0,47.0,30.0,53.0,41.9,24.0,94,83,68,0.00,40.00,20,13,38,1.14
2012-1-18,33.0,27.1,24.0,24.0,16.5,13.0,79,65,47,0.00,40.00,9,5,37,0.08
2012-1-19,37.0,28.8,22.0,25.0,20.4,12.0,80,71,55,0.00,40.00,10,7,17,0.00
2012-1-20,29.0,21.5,15.0,27.0,14.3,8.0,92,74,65,0.00,40.00,9,8,15,0.00
2012-1-21,29.0,24.9,23.0,27.0,22.5,20.0,94,91,88,0.00,40.00,8,5,19,0.00
2012-1-22,53.0,33.4,24.0,51.0,32.7,22.0,100,97,93,0.00,40.00,12,6,19,0.36
2012-1-23,55.0,47.1,36.0,53.0,41.8,31.0,97,82,69,0.00,40.00,19,11,39,0.69
2012-1-24,37.0,32.6,29.0,31.0,27.0,24.0,86,79,75,0.00,40.00,9,5,17,0.01
2012-1-25,35.0,30.8,25.0,32.0,27.7,22.0,96,89,80,0.00,40.00,8,5,13,0.15
2012-1-26,50.0,40.5,34.0,50.0,39.8,33.0,100,98,93,0.00,40.00,8,6,19,1.62
2012-1-27,38.0,34.9,34.0,37.0,31.6,27.0,96,88,74,0.00,40.00,12,7,116,0.91
2012-1-28,41.0,33.2,29.0,33.0,24.3,10.0,96,73,28,0.00,40.00,17,7,116,0.02
2012-1-29,45.0,33.5,25.0,20.0,17.4,11.0,66,53,33,0.00,40.00,21,10,38,0.01
2012-1-30,58.0,40.5,22.0,27.0,22.9,17.0,87,54,28,0.00,40.00,14,7,25,0.00
2012-1-31,59.0,50.7,47.0,47.0,32.1,23.0,90,52,35,0.00,40.00,15,8,27,0.23
2012-2-1,62.0,53.9,45.0,51.0,44.6,39.0,85,71,54,0.00,40.00,9,5,17,0.21
2012-2-2,55.0,43.1,33.0,40.0,35.2,30.0,97,77,43,0.00,40.00,7,4,52,0.00
2012-2-3,56.0,41.7,31.0,36.0,32.3,29.0,97,72,40,0.00,40.00,8,4,14,0.00
2012-2-4,46.0,41.0,38.0,38.0,35.5,31.0,97,83,56,0.00,40.00,10,8,18,0.33
2012-2-5,48.0,38.0,28.0,38.0,32.0,25.0,96,81,41,0.00,40.00,9,5,188,0.06
2012-2-6,49.0,35.0,22.0,30.0,24.6,21.0,95,70,37,0.00,40.00,8,3,79,0.01
2012-2-7,41.0,32.4,27.0,32.0,27.0,24.0,98,81,56,0.00,40.00,8,4,21,0.00
2012-2-8,36.0,32.3,30.0,30.0,27.4,26.0,91,82,67,0.00,40.00,7,3,13,0.00
2012-2-9,34.0,30.7,29.0,29.0,24.3,18.0,94,78,62,0.00,40.00,9,5,14,0.00
2012-2-10,33.0,30.8,29.0,31.0,25.1,18.0,96,80,64,0.00,40.00,13,4,22,0.04
2012-2-11,31.0,20.6,16.0,30.0,11.5,6.0,96,68,58,0.00,40.00,15,11,32,0.02
2012-2-12,34.0,22.6,14.0,16.0,9.9,3.0,72,58,46,0.00,40.00,12,8,23,0.01
2012-2-13,35.0,26.9,15.0,21.0,14.3,10.0,88,61,37,0.00,40.00,7,4,15,0.01
2012-2-14,35.0,33.4,30.0,34.0,30.0,18.0,96,87,55,0.00,40.00,9,6,15,0.09
2012-2-15,45.0,38.9,32.0,41.0,34.2,29.0,93,83,67,0.00,40.00,9,4,17,0.18
2012-2-16,47.0,43.3,36.0,46.0,40.6,32.0,99,90,74,0.00,40.00,11,5,21,0.35
2012-2-17,51.0,38.0,26.0,36.0,26.3,20.0,97,69,29,0.00,40.00,6,3,162,0.01
2012-2-18,49.0,36.4,25.0,30.0,25.2,22.0,93,67,36,0.00,40.00,10,5,16,0.00
2012-2-19,39.0,32.3,27.0,23.0,20.9,20.0,76,63,47,0.00,40.00,11,8,29,0.00
2012-2-20,47.0,32.6,18.0,24.0,19.9,16.0,92,64,33,0.00,40.00,10,6,16,0.00
2012-2-21,48.0,42.7,34.0,41.0,33.3,24.0,92,70,59,0.00,40.00,18,10,32,0.20
2012-2-22,58.0,48.0,38.0,35.0,32.4,28.0,84,58,33,0.00,40.00,16,8,42,0.02
2012-2-23,60.0,45.6,33.0,43.0,38.1,32.0,99,78,46,0.00,40.00,13,6,21,0.04
2012-2-24,51.0,40.3,31.0,45.0,31.2,18.0,96,70,57,0.00,40.00,21,12,42,0.01
2012-2-25,37.0,29.9,25.0,20.0,14.4,10.0,63,53,35,0.00,40.00,14,9,31,0.00
2012-2-26,52.0,35.7,20.0,19.0,17.1,15.0,87,52,24,0.00,40.00,10,6,19,0.00
2012-2-27,59.0,47.7,35.0,30.0,21.4,16.0,56,36,20,0.00,40.00,11,7,21,0.00
2012-2-28,61.0,43.3,28.0,33.0,26.0,21.0,79,54,28,0.00,40.00,7,6,20,0.00
2012-2-29,68.0,60.2,50.0,59.0,45.7,24.0,96,64,28,0.00,40.00,16,10,29,0.61
2012-3-1,56.0,46.2,39.0,34.0,29.3,27.0,74,53,37,0.00,40.00,15,8,28,0.01
2012-3-2,62.0,48.0,39.0,60.0,41.4,29.0,96,78,62,0.00,40.00,20,8,40,0.50
2012-3-3,44.0,36.7,32.0,29.0,25.0,18.0,85,64,44,0.00,40.00,14,10,29,0.05
2012-3-4,40.0,33.0,28.0,24.0,18.2,14.0,73,56,35,0.00,40.00,14,8,25,0.00
2012-3-5,37.0,31.1,27.0,29.0,23.1,19.0,96,74,51,0.00,40.00,11,6,18,0.11
2012-3-6,66.0,44.9,27.0,27.0,22.9,19.0,80,49,21,0.00,40.00,12,8,21,0.04
2012-3-7,67.0,59.0,50.0,44.0,34.6,19.0,53,41,24,0.00,40.00,21,12,40,0.00
2012-3-8,61.0,51.5,37.0,54.0,43.5,29.0,94,76,53,0.00,40.00,14,10,29,0.94
2012-3-9,46.0,38.2,31.0,29.0,21.2,13.0,78,53,27,0.00,40.00,15,8,26,0.01
2012-3-10,56.0,39.2,26.0,26.0,17.7,-99.9,69,47,23,0.00,40.00,9,5,15,0.00
2012-3-11,68.0,51.0,32.0,32.0,27.1,22.0,74,43,24,0.00,40.00,11,5,20,0.00
2012-3-12,64.0,58.4,53.0,59.0,51.2,31.0,94,79,36,0.00,40.00,12,8,27,0.14
2012-3-13,75.0,64.4,54.0,58.0,54.6,48.0,96,74,40,0.00,40.00,10,6,21,0.01
2012-3-14,78.0,62.5,45.0,57.0,50.6,44.0,99,70,39,0.00,40.00,11,4,22,0.00
2012-3-15,78.0,62.4,57.0,63.0,50.0,-99.9,94,72,49,0.00,40.00,10,-36,20,0.42
2012-3-16,68.0,59.7,52.0,58.0,56.1,52.0,99,88,70,0.00,40.00,9,4,15,0.15
2012-3-17,76.0,63.9,51.0,60.0,55.8,50.0,100,78,52,0.00,40.00,8,5,15,0.02
2012-3-18,80.0,68.0,58.0,60.0,57.5,55.0,96,72,46,0.00,40.00,11,6,22,0.02
2012-3-19,81.0,70.7,57.0,60.0,55.8,54.0,92,63,40,0.00,40.00,9,5,18,0.00
2012-3-20,85.0,71.7,59.0,55.0,52.1,-99.9,84,54,34,0.00,40.00,9,5,17,0.00
2012-3-21,85.0,70.3,58.0,57.0,53.5,52.0,82,58,33,0.00,40.00,9,4,20,0.00
2012-3-22,82.0,67.8,67.0,57.0,25.1,-99.9,68,41,38,0.00,40.00,11,-100,18,0.00
2012-3-23,68.0,57.6,59.0,63.0,39.6,-99.9,97,78,66,0.00,40.00,8,-79,19,1.20
2012-3-24,63.0,56.2,49.0,56.0,48.3,43.0,98,78,51,0.00,40.00,8,4,17,0.12
2012-3-25,68.0,56.6,45.0,54.0,50.8,44.0,97,82,58,0.00,40.00,9,4,18,0.00
2012-3-26,61.0,53.2,44.0,55.0,39.9,29.0,97,64,35,0.00,40.00,11,7,19,0.00
2012-3-27,68.0,49.9,34.0,40.0,28.3,22.0,63,46,24,0.00,40.00,10,8,17,0.00
2012-3-28,78.0,66.1,57.0,56.0,43.3,28.0,69,47,16,0.00,40.00,16,8,34,0.00
2012-3-29,67.0,56.0,42.0,40.0,37.7,35.0,82,52,34,0.00,40.00,8,5,13,0.00
2012-3-30,81.0,60.8,47.0,55.0,47.2,38.0,94,65,36,0.00,40.00,17,9,39,0.35
2012-3-31,58.0,52.8,44.0,55.0,48.0,42.0,98,85,64,0.00,40.00,8,5,13,0.31
2012-4-1,73.0,54.8,43.0,60.0,49.6,41.0,97,85,58,0.00,40.00,11,5,19,0.35
2012-4-2,71.0,60.9,50.0,60.0,46.1,37.0,93,62,30,0.00,40.00,12,7,23,0.01
2012-4-3,84.0,65.8,52.0,60.0,47.3,38.0,73,52,40,0.00,40.00,9,5,17,0.00
2012-4-4,76.0,63.2,56.0,60.0,55.8,46.0,93,77,55,0.00,40.00,10,5,17,0.38
2012-4-5,60.0,51.4,41.0,46.0,33.5,29.0,89,53,34,0.00,40.00,14,10,24,0.25
2012-4-6,61.0,45.4,34.0,35.0,28.9,26.0,81,56,26,0.00,40.00,12,8,21,0.02
2012-4-7,67.0,45.8,37.0,39.0,26.3,16.0,85,51,14,0.00,40.00,8,4,13,0.00
2012-4-8,65.0,55.5,39.0,43.0,32.4,16.0,76,46,17,0.00,40.00,12,6,26,0.00
2012-4-9,66.0,51.1,36.0,35.0,27.6,18.0,85,47,16,0.00,40.00,16,7,37,0.00
2012-4-10,55.0,46.9,35.0,27.0,21.3,15.0,64,37,22,0.00,40.00,14,8,31,0.00
2012-4-11,51.0,38.6,25.0,29.0,24.0,22.0,91,60,32,0.00,40.00,11,5,26,0.00
2012-4-12,60.0,42.7,26.0,37.0,26.2,23.0,95,61,25,0.00,40.00,7,3,87,0.00
2012-4-13,66.0,49.8,32.0,40.0,30.7,25.0,96,57,23,0.00,40.00,11,3,37,0.00
2012-4-14,63.0,55.5,49.0,57.0,47.2,36.0,99,76,48,0.00,40.00,11,4,19,0.88
2012-4-15,79.0,69.0,62.0,56.0,51.9,-99.9,74,58,39,0.00,40.00,15,10,29,0.01
2012-4-16,70.0,65.6,52.0,61.0,51.9,41.0,93,62,46,0.00,40.00,18,12,33,0.14
2012-4-17,62.0,52.3,42.0,48.0,42.1,40.0,99,72,44,0.00,40.00,6,2,9,0.02
2012-4-18,70.0,53.0,39.0,46.0,38.4,29.0,97,65,23,0.00,40.00,8,3,14,0.00
2012-4-19,76.0,56.5,39.0,51.0,40.0,33.0,98,63,21,0.00,40.00,7,3,15,0.00
2012-4-20,74.0,61.6,49.0,56.0,48.8,44.0,95,64,47,0.00,40.00,13,6,25,0.14
2012-4-21,47.0,44.7,43.0,44.0,41.0,37.0,97,87,74,0.00,40.00,9,6,17,0.17
2012-4-22,53.0,44.3,37.0,38.0,31.5,-99.9,98,67,42,0.00,40.00,11,6,21,0.01
2012-4-23,59.0,46.1,34.0,29.0,20.3,9.0,63,40,16,0.00,40.00,18,10,34,0.00
2012-4-24,62.0,47.5,31.0,45.0,26.4,14.0,84,48,18,0.00,40.00,13,6,24,0.00
2012-4-25,72.0,57.4,48.0,59.0,51.6,45.0,96,83,52,0.00,40.00,9,6,97,0.08
2012-4-26,74.0,63.7,50.0,60.0,53.6,29.0,97,72,45,0.00,40.00,15,8,28,0.05
2012-4-27,62.0,48.1,35.0,32.0,27.0,20.0,78,46,22,0.00,40.00,10,7,29,0.01
2012-4-28,58.0,50.2,45.0,48.0,40.5,30.0,96,71,45,0.00,40.00,12,9,23,0.13
2012-4-29,67.0,54.1,45.0,54.0,45.7,-99.9,94,76,59,0.00,40.00,10,7,17,0.11
2012-4-30,82.0,67.1,54.0,65.0,58.2,53.0,98,77,43,0.00,40.00,12,6,26,0.37
2012-5-1,81.0,67.4,61.0,68.0,63.7,61.0,100,89,62,0.00,40.00,11,5,27,0.58
2012-5-2,88.0,75.3,62.0,67.0,63.9,62.0,100,71,44,0.00,40.00,14,6,26,0.20
2012-5-3,84.0,74.8,61.0,66.0,63.2,61.0,100,69,51,0.00,40.00,11,6,19,0.00
2012-5-4,82.0,71.0,59.0,71.0,64.9,59.0,100,82,61,0.00,40.00,10,5,19,0.21
2012-5-5,83.0,71.5,61.0,67.0,65.1,61.0,100,83,58,0.00,40.00,7,4,16,0.22
2012-5-6,85.0,71.6,60.0,68.0,62.1,-99.9,99,78,46,0.00,40.00,7,4,15,0.01
2012-5-7,84.0,70.4,61.0,66.0,63.2,59.0,100,81,52,0.00,40.00,12,4,20,0.56
2012-5-8,73.0,65.2,53.0,64.0,57.3,49.0,100,79,48,0.00,40.00,9,6,18,1.00
2012-5-9,70.0,58.9,49.0,54.0,47.3,40.0,100,71,36,0.00,40.00,13,6,24,0.02
2012-5-10,68.0,55.6,40.0,47.0,42.7,39.0,99,67,35,0.00,40.00,9,5,17,0.02
2012-5-11,74.0,58.1,42.0,49.0,42.2,37.0,100,64,27,0.00,40.00,9,2,13,0.00
2012-5-12,75.0,60.3,47.0,58.0,47.9,43.0,100,70,33,0.00,40.00,7,2,12,0.01
2012-5-13,60.0,58.4,57.0,59.0,56.6,-99.9,99,97,90,0.00,40.00,9,5,16,0.83
2012-5-14,76.0,64.6,57.0,59.0,57.3,53.0,99,81,45,0.00,40.00,8,5,16,0.03
2012-5-15,81.0,66.0,51.0,61.0,51.8,43.0,100,69,26,0.00,40.00,6,3,82,0.00
2012-5-16,82.0,66.2,50.0,57.0,52.5,44.0,100,66,41,0.00,40.00,11,5,18,0.00
2012-5-17,74.0,62.8,50.0,45.0,41.1,38.0,83,47,27,0.00,40.00,12,7,18,0.00
2012-5-18,82.0,64.3,47.0,52.0,46.7,41.0,90,57,31,0.00,40.00,7,3,14,0.00
2012-5-19,86.0,69.2,51.0,61.0,55.8,51.0,99,68,36,0.00,40.00,6,2,12,0.00
2012-5-20,88.0,71.4,55.0,62.0,56.6,-99.9,100,68,32,0.00,40.00,6,2,16,0.00
2012-5-21,75.0,68.1,60.0,63.0,59.8,53.0,97,76,62,0.00,40.00,9,5,18,0.00
2012-5-22,77.0,65.0,53.0,60.0,54.0,51.0,92,69,43,0.00,40.00,7,4,13,0.00
2012-5-23,80.0,65.8,51.0,64.0,55.9,51.0,100,75,48,0.00,40.00,8,3,15,0.00
2012-5-24,85.0,71.7,57.0,64.0,57.7,54.0,100,67,36,0.00,40.00,10,5,20,0.00
2012-5-25,88.0,76.5,67.0,72.0,64.2,56.0,94,67,52,0.00,40.00,9,5,16,0.00
2012-5-26,91.0,76.4,63.0,70.0,65.9,63.0,100,75,44,0.00,40.00,7,2,12,0.00
2012-5-27,91.0,77.4,64.0,71.0,66.1,-99.9,100,75,45,0.00,40.00,7,2,13,0.00
2012-5-28,91.0,78.4,65.0,70.0,67.6,65.0,100,74,43,0.00,40.00,7,3,15,0.00
2012-5-29,79.0,72.8,64.0,69.0,67.4,62.0,99,84,69,0.00,40.00,9,4,20,0.76
2012-5-30,81.0,67.9,54.0,66.0,54.2,46.0,100,69,31,0.00,40.00,11,4,20,0.02
2012-5-31,81.0,63.5,47.0,62.0,52.6,47.0,100,73,38,0.00,40.00,10,5,26,0.61
2012-6-1,63.0,58.5,50.0,63.0,55.5,48.0,99,90,73,0.00,40.00,12,6,23,1.70
2012-6-2,69.0,57.4,46.0,56.0,48.4,44.0,98,76,42,0.00,40.00,12,6,23,0.01
2012-6-3,80.0,64.7,49.0,60.0,52.3,-99.9,99,71,37,0.00,40.00,10,5,22,0.00
2012-6-4,71.0,64.4,57.0,62.0,58.5,56.0,98,82,61,0.00,40.00,8,4,15,0.00
2012-6-5,73.0,62.9,52.0,58.0,51.7,48.0,99,69,46,0.00,40.00,9,5,21,0.00
2012-6-6,75.0,60.9,48.0,53.0,49.6,46.0,99,71,37,0.00,40.00,8,4,18,0.00
2012-6-7,81.0,65.1,47.0,57.0,50.2,46.0,100,66,31,0.00,40.00,7,2,13,0.00
2012-6-8,85.0,67.8,50.0,58.0,52.2,47.0,99,66,28,0.00,40.00,7,2,12,0.00
2012-6-9,86.0,69.6,52.0,63.0,55.5,52.0,99,68,33,0.00,40.00,7,2,16,0.00
2012-6-10,86.0,72.9,58.0,65.0,60.5,-99.9,100,72,46,0.00,40.00,10,4,16,0.00
2012-6-11,82.0,73.1,68.0,70.0,67.5,63.0,99,83,64,0.00,40.00,7,4,13,0.01
2012-6-12,84.0,71.6,59.0,69.0,60.8,44.0,100,75,28,0.00,40.00,10,4,18,0.01
2012-6-13,79.0,67.2,48.0,57.0,51.5,45.0,95,59,42,0.00,40.00,10,5,20,0.00
2012-6-14,83.0,66.5,51.0,54.0,49.4,46.0,98,61,29,0.00,40.00,7,4,14,0.00
2012-6-15,89.0,70.2,51.0,66.0,57.3,51.0,99,70,33,0.00,40.00,6,2,12,0.00
2012-6-16,84.0,72.6,63.0,72.0,66.6,63.0,100,83,63,0.00,40.00,10,3,16,0.00
2012-6-17,82.0,74.9,69.0,72.0,68.4,67.0,96,81,64,0.00,40.00,11,6,23,0.32
2012-6-18,88.0,77.7,68.0,69.0,65.9,63.0,93,70,46,0.00,40.00,11,6,21,0.01
2012-6-19,89.0,78.0,63.0,67.0,64.7,63.0,99,67,42,0.00,40.00,10,5,17,0.00
2012-6-20,90.0,80.2,63.0,68.0,65.0,62.0,99,64,41,0.00,40.00,8,4,15,0.00
2012-6-21,90.0,77.4,64.0,68.0,64.0,59.0,100,68,38,0.00,40.00,11,4,21,0.00
2012-6-22,87.0,76.1,64.0,67.0,61.1,54.0,98,64,35,0.00,40.00,6,4,18,0.04
2012-6-23,88.0,72.7,56.0,62.0,55.3,48.0,95,60,27,0.00,40.00,7,3,14,0.03
2012-6-24,90.0,76.9,61.0,66.0,60.6,56.0,97,62,33,0.00,40.00,4,2,9,0.00
2012-6-25,85.0,73.7,63.0,65.0,58.0,44.0,96,63,31,0.00,40.00,11,5,19,0.00
2012-6-26,80.0,67.0,51.0,52.0,46.7,45.0,80,51,31,0.00,40.00,15,7,20,0.00
2012-6-27,86.0,68.5,51.0,58.0,52.6,49.0,99,64,29,0.00,40.00,7,3,12,0.00
2012-6-28,102.0,79.1,58.0,66.0,58.9,56.0,95,56,25,0.00,40.00,11,5,19,0.00
2012-6-29,100.0,80.8,67.0,76.0,65.7,58.0,82,62,41,0.00,40.00,11,4,40,0.00
2012-6-30,98.0,83.1,65.0,70.0,67.2,64.0,99,62,34,0.00,40.00,8,4,18,0.00
2012-7-1,97.0,77.3,67.0,78.0,68.7,64.0,97,78,42,0.00,40.00,15,4,38,2.11
2012-7-2,94.0,78.5,63.0,75.0,68.0,62.0,98,74,45,0.00,40.00,7,3,69,0.69
2012-7-3,91.0,79.0,66.0,77.0,69.6,65.0,99,76,52,0.00,40.00,7,3,185,0.01
2012-7-4,96.0,82.7,69.0,75.0,71.7,69.0,99,73,44,0.00,40.00,6,3,12,0.00
2012-7-5,98.0,83.8,70.0,78.0,71.8,69.0,98,71,41,0.00,40.00,6,3,11,0.00
2012-7-6,99.0,83.5,68.0,81.0,71.3,68.0,99,72,40,0.00,40.00,4,2,7,0.00
2012-7-7,101.0,85.5,72.0,78.0,73.2,69.0,99,72,36,0.00,40.00,8,2,11,0.00
2012-7-8,97.0,81.0,72.0,81.0,73.0,70.0,98,79,46,0.00,40.00,17,3,34,0.42
2012-7-9,88.0,76.9,66.0,72.0,64.7,56.0,99,71,34,0.00,40.00,8,4,15,0.05
2012-7-10,91.0,76.2,60.0,65.0,60.9,56.0,99,66,31,0.00,40.00,6,2,12,0.00
2012-7-11,91.0,77.6,65.0,65.0,59.4,56.0,89,57,32,0.00,40.00,8,5,13,0.00
2012-7-12,87.0,75.0,62.0,70.0,64.1,56.0,87,70,48,0.00,40.00,8,4,17,0.00
2012-7-13,84.0,74.3,65.0,69.0,67.1,65.0,99,80,57,0.00,40.00,9,4,12,0.00
2012-7-14,79.0,73.7,70.0,73.0,70.5,68.0,98,90,74,0.00,40.00,8,3,13,0.10
2012-7-15,87.0,76.4,67.0,74.0,70.7,67.0,99,84,58,0.00,40.00,9,4,15,0.17
2012-7-16,93.0,78.7,67.0,74.0,70.8,67.0,99,80,47,0.00,40.00,7,3,13,0.17
2012-7-17,94.0,81.2,71.0,74.0,71.3,67.0,97,74,44,0.00,40.00,8,4,17,0.00
2012-7-18,96.0,79.5,70.0,76.0,70.8,67.0,98,77,43,0.00,40.00,14,4,24,0.00
2012-7-19,86.0,76.6,71.0,78.0,72.2,69.0,97,87,70,0.00,40.00,9,4,20,0.29
2012-7-20,82.0,73.6,66.0,75.0,69.5,63.0,98,88,73,0.00,40.00,9,5,17,0.23
2012-7-21,85.0,71.5,59.0,66.0,61.0,58.0,99,74,40,0.00,40.00,9,4,144,0.21
2012-7-22,90.0,74.7,59.0,71.0,63.2,59.0,99,73,40,0.00,40.00,5,2,14,0.00
2012-7-23,94.0,82.0,66.0,75.0,70.7,66.0,99,71,50,0.00,40.00,10,6,18,0.00
2012-7-24,92.0,83.2,78.0,78.0,73.0,70.0,96,72,57,0.00,40.00,9,4,17,0.00
2012-7-25,97.0,83.7,71.0,75.0,71.8,68.0,93,70,45,0.00,40.00,9,5,14,0.00
2012-7-26,92.0,84.6,74.0,75.0,71.8,69.0,87,66,58,0.00,40.00,12,7,21,0.00
2012-7-27,92.0,77.7,65.0,73.0,68.3,63.0,98,77,38,0.00,40.00,9,5,54,0.36
2012-7-28,82.0,72.5,63.0,68.0,64.5,62.0,99,79,51,0.00,40.00,7,4,19,0.36
2012-7-29,86.0,71.5,58.0,68.0,61.3,57.0,99,76,37,0.00,40.00,4,2,10,0.01
2012-7-30,90.0,75.4,61.0,68.0,62.8,60.0,99,70,39,0.00,40.00,5,2,15,0.00
2012-7-31,91.0,75.9,62.0,70.0,65.2,62.0,99,74,41,0.00,40.00,10,3,16,0.00
2012-8-1,90.0,76.3,62.0,68.0,64.9,59.0,98,73,35,0.00,40.00,8,3,17,0.00
2012-8-2,96.0,82.3,61.0,65.0,57.9,52.0,96,51,23,0.00,40.00,5,3,10,0.00
2012-8-3,83.0,76.5,71.0,70.0,67.1,64.0,93,73,58,0.00,40.00,7,4,15,0.00
2012-8-4,92.0,79.6,71.0,77.0,72.4,68.0,97,80,57,0.00,40.00,9,6,21,0.00
2012-8-5,87.0,80.0,70.0,73.0,70.2,64.0,86,73,57,0.00,40.00,9,6,21,0.00
2012-8-6,89.0,74.0,62.0,65.0,59.2,55.0,98,66,32,0.00,40.00,6,3,11,0.00
2012-8-7,92.0,75.8,58.0,67.0,58.9,52.0,98,64,26,0.00,40.00,7,2,38,0.00
2012-8-8,96.0,78.5,59.0,65.0,59.8,54.0,98,60,25,0.00,40.00,10,4,58,0.00
2012-8-9,90.0,76.3,67.0,66.0,63.7,61.0,91,68,41,0.00,40.00,11,6,20,0.00
2012-8-10,77.0,68.6,63.0,66.0,61.4,53.0,99,80,53,0.00,40.00,11,6,39,1.21
2012-8-11,79.0,65.7,54.0,57.0,52.8,47.0,96,68,32,0.00,40.00,10,5,17,0.04
2012-8-12,83.0,66.3,50.0,63.0,52.2,-99.9,99,70,30,0.00,40.00,6,2,52,0.00
2012-8-13,78.0,68.2,59.0,66.0,61.6,58.0,98,80,58,0.00,40.00,7,3,108,0.01
2012-8-14,79.0,70.3,62.0,67.0,63.6,61.0,98,81,56,0.00,40.00,9,4,16,0.01
2012-8-15,85.0,70.5,58.0,64.0,60.8,57.0,99,76,38,0.00,40.00,5,1,14,0.00
2012-8-16,86.0,71.9,58.0,66.0,61.5,58.0,99,74,43,0.00,40.00,14,4,23,1.22
2012-8-17,79.0,69.7,57.0,66.0,60.0,53.0,98,75,42,0.00,40.00,14,4,153,1.23
2012-8-18,80.0,66.1,54.0,58.0,53.0,49.0,97,69,35,0.00,40.00,6,3,153,0.01
2012-8-19,81.0,66.5,53.0,59.0,52.3,47.0,96,66,31,0.00,40.00,7,3,15,0.00
2012-8-20,80.0,64.5,50.0,59.0,53.0,49.0,98,72,35,0.00,40.00,7,2,14,0.00
2012-8-21,81.0,68.0,53.0,60.0,55.0,48.0,98,68,39,0.00,40.00,7,3,17,0.00
2012-8-22,85.0,67.3,50.0,61.0,52.8,48.0,99,68,31,0.00,40.00,6,2,13,0.00
2012-8-23,88.0,69.7,52.0,63.0,54.0,49.0,99,67,27,0.00,40.00,5,2,12,0.00
2012-8-24,92.0,71.6,55.0,65.0,56.9,53.0,99,69,27,0.00,40.00,7,2,14,0.00
2012-8-25,93.0,75.6,59.0,65.0,59.4,54.0,97,65,27,0.00,40.00,5,3,13,0.00
2012-8-26,89.0,75.1,60.0,68.0,63.7,59.0,99,73,42,0.00,40.00,8,3,14,0.00
2012-8-27,84.0,74.3,67.0,74.0,68.8,65.0,98,84,65,0.00,40.00,9,3,18,0.34
2012-8-28,87.0,73.5,57.0,69.0,60.3,56.0,99,68,38,0.00,40.00,7,3,14,0.31
2012-8-29,86.0,70.6,57.0,63.0,57.3,54.0,98,69,34,0.00,40.00,7,2,14,0.00
2012-8-30,92.0,71.8,54.0,63.0,55.4,50.0,98,65,25,0.00,40.00,7,3,13,0.00
2012-8-31,86.0,75.3,63.0,72.0,68.1,60.0,98,80,60,0.00,40.00,8,3,14,0.00
2012-9-1,83.0,76.9,72.0,75.0,71.6,70.0,97,84,71,0.00,40.00,10,4,19,0.00
2012-9-2,79.0,74.1,72.0,73.0,70.9,68.0,97,90,81,0.00,40.00,11,6,24,0.20
2012-9-3,82.0,75.0,72.0,75.0,72.5,71.0,99,92,76,0.00,40.00,7,4,11,0.19
2012-9-4,88.0,77.0,70.0,74.0,71.8,69.0,98,86,58,0.00,40.00,6,2,13,0.05
2012-9-5,88.0,71.7,63.0,73.0,67.5,62.0,99,89,53,0.00,40.00,14,3,26,0.17
2012-9-6,84.0,70.2,60.0,71.0,66.4,60.0,99,89,60,0.00,40.00,7,2,11,0.01
2012-9-7,89.0,75.4,61.0,72.0,66.5,61.0,99,77,47,0.00,40.00,16,4,46,0.53
2012-9-8,73.0,65.7,52.0,65.0,56.9,47.0,98,76,43,0.00,40.00,14,6,24,1.46
2012-9-9,74.0,60.7,48.0,55.0,51.6,47.0,99,76,48,0.00,40.00,10,4,144,0.05
2012-9-10,77.0,63.1,49.0,56.0,50.3,47.0,98,70,35,0.00,40.00,7,2,13,0.00
2012-9-11,80.0,62.8,47.0,55.0,49.5,45.0,99,69,30,0.00,40.00,9,3,17,0.00
2012-9-12,83.0,66.0,51.0,61.0,55.8,50.0,99,75,37,0.00,40.00,8,2,17,0.00
2012-9-13,83.0,69.9,59.0,64.0,59.1,54.0,98,74,37,0.00,40.00,6,2,13,0.00
2012-9-14,74.0,61.2,50.0,63.0,57.2,49.0,99,87,66,0.00,40.00,8,3,14,0.00
2012-9-15,76.0,59.6,46.0,53.0,47.7,45.0,99,72,33,0.00,40.00,8,3,16,0.00
2012-9-16,80.0,64.0,47.0,57.0,51.0,46.0,98,69,34,0.00,40.00,6,2,12,0.00
2012-9-17,72.0,64.1,57.0,66.0,61.3,56.0,98,91,73,0.00,40.00,6,2,9,0.04
2012-9-18,67.0,61.9,44.0,64.0,53.8,38.0,98,78,38,0.00,40.00,13,6,23,0.03
2012-9-19,69.0,51.5,34.0,47.0,37.0,33.0,98,66,26,0.00,40.00,8,3,16,0.01
2012-9-20,76.0,59.7,41.0,57.0,47.1,39.0,95,67,38,0.00,40.00,11,4,98,0.00
2012-9-21,72.0,62.1,47.0,58.0,53.1,45.0,98,76,44,0.00,40.00,11,4,25,0.00
2012-9-22,71.0,59.5,38.0,61.0,47.5,30.0,98,69,29,0.00,40.00,17,8,30,0.46
2012-9-23,64.0,46.3,32.0,41.0,34.9,-99.9,97,73,34,0.00,40.00,7,2,17,0.01
2012-9-24,68.0,49.7,32.0,46.0,35.9,32.0,98,67,30,0.00,40.00,9,3,17,0.00
2012-9-25,69.0,58.4,46.0,62.0,51.5,39.0,96,79,63,0.00,40.00,10,5,18,0.10
2012-9-26,74.0,66.0,61.0,66.0,62.3,58.0,98,88,72,0.00,40.00,14,6,32,0.70
2012-9-27,75.0,65.6,62.0,65.0,62.8,61.0,98,92,69,0.00,40.00,5,4,12,0.28
2012-9-28,72.0,62.6,56.0,64.0,60.3,54.0,99,93,69,0.00,40.00,5,3,13,0.01
2012-9-29,75.0,61.8,51.0,59.0,54.6,49.0,99,81,42,0.00,40.00,6,3,12,0.01
2012-9-30,74.0,58.3,45.0,57.0,47.0,42.0,99,72,32,0.00,40.00,7,3,15,0.01
2012-10-1,66.0,56.2,52.0,55.0,48.8,43.0,96,77,58,0.00,40.00,12,8,19,1.52
2012-10-2,73.0,63.1,56.0,63.0,58.6,54.0,98,87,63,0.00,40.00,8,5,17,1.27
2012-10-3,74.0,62.1,52.0,55.0,51.8,48.0,95,72,41,0.00,40.00,10,5,25,0.01
2012-10-4,78.0,62.5,49.0,56.0,52.3,48.0,99,74,43,0.00,40.00,10,4,20,0.00
2012-10-5,73.0,59.1,42.0,57.0,52.9,40.0,98,82,56,0.00,40.00,10,5,21,0.38
2012-10-6,57.0,45.8,36.0,40.0,35.4,27.0,96,71,32,0.00,40.00,9,5,20,0.69
2012-10-7,53.0,44.4,34.0,39.0,34.9,30.0,93,71,44,0.00,40.00,8,4,16,0.00
2012-10-8,57.0,41.0,29.0,40.0,31.0,28.0,97,74,34,0.00,40.00,6,2,14,0.00
2012-10-9,63.0,47.4,33.0,43.0,37.2,32.0,97,73,38,0.00,40.00,10,4,198,0.00
2012-10-10,57.0,48.8,33.0,43.0,35.3,26.0,87,62,37,0.00,40.00,13,7,159,0.00
2012-10-11,61.0,42.2,27.0,33.0,29.1,26.0,96,67,30,0.00,40.00,9,3,15,0.00
2012-10-12,62.0,48.0,37.0,42.0,38.1,35.0,95,72,43,0.00,40.00,11,4,69,0.00
2012-10-13,71.0,58.0,41.0,62.0,49.4,34.0,82,73,58,0.00,40.00,12,6,20,0.00
2012-10-14,73.0,67.3,63.0,61.0,57.9,54.0,83,72,60,0.00,40.00,16,11,36,0.03
2012-10-15,63.0,54.7,40.0,57.0,42.3,34.0,92,66,36,0.00,40.00,13,7,24,0.03
2012-10-16,67.0,50.5,33.0,45.0,37.6,32.0,97,67,31,0.00,40.00,9,4,145,0.00
2012-10-17,74.0,63.6,53.0,50.0,46.8,41.0,85,56,36,0.00,40.00,13,8,25,0.00
2012-10-18,66.0,55.5,49.0,54.0,42.5,27.0,93,65,27,0.00,40.00,16,9,30,0.29
2012-10-19,55.0,48.8,46.0,44.0,38.6,34.0,94,70,48,0.00,40.00,10,6,22,0.31
2012-10-20,55.0,47.6,37.0,46.0,42.7,35.0,96,83,63,0.00,40.00,11,6,21,0.21
2012-10-21,70.0,51.3,34.0,48.0,41.7,33.0,98,75,42,0.00,40.00,9,4,153,0.00
2012-10-22,78.0,64.5,51.0,54.0,49.4,45.0,84,60,39,0.00,40.00,9,5,17,0.00
2012-10-23,80.0,68.7,57.0,50.0,48.5,46.0,73,50,34,0.00,40.00,11,6,21,0.00
2012-10-24,79.0,69.2,60.0,56.0,51.1,48.0,67,53,38,0.00,40.00,11,6,19,0.00
2012-10-25,79.0,66.1,52.0,55.0,51.2,46.0,89,61,40,0.00,40.00,12,6,171,0.00
2012-10-26,69.0,50.8,43.0,54.0,45.7,41.0,94,84,57,0.00,40.00,11,7,24,0.76
2012-10-27,55.0,46.2,40.0,41.0,37.4,32.0,92,73,48,0.00,40.00,12,8,22,0.18
2012-10-28,51.0,44.1,38.0,35.0,32.0,29.0,78,63,48,0.00,40.00,13,8,24,0.00
2012-10-29,49.0,42.2,34.0,31.0,25.2,14.0,76,53,26,0.00,40.00,15,11,32,0.00
2012-10-30,43.0,40.0,38.0,37.0,33.1,25.0,91,78,49,0.00,40.00,15,12,32,0.48
2012-10-31,45.0,40.6,38.0,37.0,32.9,29.0,91,74,55,0.00,40.00,11,7,19,0.19
2012-11-1,55.0,44.2,32.0,33.0,22.9,12.0,73,48,18,0.00,40.00,11,6,21,0.01
2012-11-2,54.0,43.4,31.0,31.0,28.0,23.0,85,56,38,0.00,40.00,8,4,120,0.00
2012-11-3,41.0,34.7,27.0,38.0,32.3,25.0,95,91,85,0.00,40.00,9,4,53,0.26
2012-11-4,49.0,38.2,28.0,36.0,31.2,26.0,95,77,53,0.00,40.00,8,4,142,0.01
2012-11-5,49.0,33.5,20.0,31.0,26.2,18.0,94,77,45,0.00,40.00,8,3,166,0.00
2012-11-6,54.0,40.1,29.0,34.0,27.9,25.0,87,64,34,0.00,40.00,8,3,111,0.00
2012-11-7,52.0,42.7,31.0,39.0,34.4,27.0,95,75,42,0.00,40.00,8,4,12,0.05
2012-11-8,54.0,37.2,25.0,35.0,29.0,24.0,94,76,42,0.00,40.00,5,2,12,0.01
2012-11-9,62.0,44.9,27.0,40.0,34.1,26.0,96,70,36,0.00,40.00,10,4,17,0.00
2012-11-10,72.0,60.2,51.0,45.0,40.3,36.0,59,48,36,0.00,40.00,11,7,23,0.00
2012-11-11,67.0,60.0,52.0,46.0,39.4,35.0,58,47,34,0.00,40.00,14,8,34,0.00
2012-11-12,63.0,45.9,29.0,55.0,38.7,21.0,96,77,55,0.00,40.00,14,8,24,0.62
2012-11-13,44.0,31.5,22.0,26.0,21.8,19.0,93,71,37,0.00,40.00,7,3,98,0.02
2012-11-14,43.0,32.3,24.0,27.0,22.6,-99.9,88,70,51,0.00,40.00,8,4,18,0.00
2012-11-15,49.0,34.1,23.0,29.0,25.7,21.0,93,75,42,0.00,40.00,5,2,70,0.00
2012-11-16,52.0,34.7,23.0,33.0,27.2,21.0,94,77,40,0.00,40.00,8,2,117,0.00
2012-11-17,59.0,41.8,27.0,34.0,28.7,25.0,93,64,31,0.00,40.00,9,5,14,0.00
2012-11-18,63.0,44.0,32.0,31.0,27.1,25.0,78,55,23,0.00,40.00,5,3,10,0.00
2012-11-19,62.0,43.8,29.0,33.0,28.7,25.0,86,60,28,0.00,40.00,4,2,8,0.00
2012-11-20,63.0,50.2,38.0,40.0,35.7,32.0,87,60,34,0.00,40.00,6,2,11,0.00
2012-11-21,65.0,48.7,38.0,41.0,37.2,35.0,90,69,35,0.00,40.00,6,2,9,0.00
2012-11-22,66.0,48.6,32.0,41.0,37.1,31.0,97,69,39,0.00,40.00,11,4,22,0.00
2012-11-23,56.0,45.8,32.0,50.0,30.6,17.0,90,56,42,0.00,40.00,16,11,29,0.00
2012-11-24,34.0,27.8,19.0,18.0,16.2,15.0,84,62,48,0.00,40.00,11,5,146,0.00
2012-11-25,48.0,35.1,22.0,25.0,21.8,20.0,90,61,36,0.00,40.00,10,5,146,0.00
2012-11-26,44.0,28.6,23.0,34.0,24.5,21.0,91,84,67,0.00,40.00,2,1,53,0.00
2012-11-27,42.0,33.5,23.0,29.0,24.2,20.0,90,70,47,0.00,40.00,9,5,18,0.04
2012-11-28,45.0,29.0,18.0,26.0,20.1,15.0,91,73,40,0.00,40.00,7,2,192,0.00
2012-11-29,51.0,34.4,19.0,28.0,23.2,16.0,91,67,36,0.00,40.00,17,4,149,0.00
2012-11-30,57.0,47.8,40.0,38.0,32.0,26.0,78,55,39,0.00,40.00,12,6,21,0.00
2012-12-1,65.0,54.0,42.0,45.0,41.2,37.0,82,63,46,0.00,40.00,10,6,20,0.00
2012-12-2,60.0,57.3,53.0,59.0,51.8,44.0,97,83,60,0.00,40.00,11,7,25,0.71
2012-12-3,72.0,63.7,60.0,59.0,55.6,50.0,95,76,57,0.00,40.00,15,7,27,0.03
2012-12-4,64.0,57.5,42.0,59.0,50.1,37.0,96,77,63,0.00,40.00,9,7,21,0.12
2012-12-5,52.0,38.5,30.0,40.0,31.9,27.0,97,80,42,0.00,40.00,6,3,186,0.04
2012-12-6,48.0,37.9,28.0,45.0,31.9,25.0,94,80,56,0.00,40.00,7,5,36,0.13
2012-12-7,55.0,50.8,46.0,54.0,50.4,45.0,99,98,95,0.00,40.00,9,4,146,0.86
2012-12-8,55.0,53.3,52.0,54.0,51.8,49.0,98,95,85,0.00,40.00,7,4,14,0.42
2012-12-9,61.0,52.5,47.0,58.0,50.3,44.0,98,92,87,0.00,40.00,9,6,15,0.02
2012-12-10,51.0,35.2,31.0,50.0,31.2,26.0,96,85,80,0.00,40.00,12,8,21,0.65
2012-12-11,34.0,30.0,25.0,27.0,23.6,21.0,85,77,58,0.00,40.00,7,5,103,0.00
2012-12-12,45.0,29.1,19.0,28.0,21.7,17.0,93,77,42,0.00,40.00,5,2,108,0.00
2012-12-13,48.0,31.4,20.0,30.0,22.5,18.0,93,73,38,0.00,40.00,6,2,34,0.00
2012-12-14,55.0,38.2,24.0,28.0,24.3,21.0,91,62,26,0.00,40.00,9,4,75,0.00
2012-12-15,55.0,46.4,39.0,49.0,37.1,26.0,93,71,52,0.00,40.00,11,6,22,0.20
2012-12-16,62.0,55.7,46.0,53.0,49.2,44.0,93,79,63,0.00,40.00,10,6,21,0.04
2012-12-17,54.0,45.2,39.0,49.0,43.4,38.0,98,94,83,0.00,40.00,6,2,25,0.18
2012-12-18,43.0,39.5,37.0,42.0,35.4,33.0,96,85,69,0.00,40.00,9,6,16,0.03
2012-12-19,46.0,40.7,33.0,37.0,33.7,30.0,91,76,64,0.00,40.00,13,6,195,0.01
2012-12-20,52.0,44.7,31.0,48.0,38.4,24.0,94,79,61,0.00,40.00,23,13,44,0.75
2012-12-21,30.0,26.5,24.0,24.0,20.0,17.0,87,76,71,0.00,40.00,21,15,38,0.01
2012-12-22,35.0,27.0,19.0,20.0,18.0,16.0,86,69,51,0.00,40.00,11,6,18,0.00
2012-12-23,52.0,37.0,27.0,29.0,24.0,17.0,84,61,40,0.00,40.00,9,4,15,0.00
2012-12-24,43.0,36.4,31.0,42.0,33.3,26.0,97,89,76,0.00,40.00,9,5,79,0.05
2012-12-25,34.0,32.4,31.0,28.0,26.9,25.0,85,80,74,0.00,40.00,15,7,24,0.01
2012-12-26,33.0,30.8,28.0,31.0,28.1,24.0,96,89,73,0.00,40.00,18,10,28,0.04
2012-12-27,33.0,28.8,25.0,25.0,23.3,21.0,86,80,70,0.00,40.00,7,4,15,0.18
2012-12-28,33.0,30.4,28.0,30.0,26.9,25.0,95,87,77,0.00,40.00,7,4,11,0.06
2012-12-29,32.0,29.2,25.0,30.0,26.1,19.0,96,88,75,0.00,40.00,13,7,21,0.01
2012-12-30,33.0,24.3,16.0,19.0,17.0,11.0,86,74,56,0.00,40.00,9,6,58,0.15
2012-12-31,36.0,30.7,23.0,31.0,25.8,20.0,93,82,67,0.00,40.00,9,6,19,0.06
2013-1-1,33.0,31.2,26.0,31.0,27.6,20.0,97,87,73,0.00,40.00,7,4,190,0.06